CW0962 Weather Reports


Display with metric or nautical units.
time (UTC)temp
F
wind
direction
speed
MPH
gust
MPH
rain 1hr
in
rain 24hr
in
rain mn
in
humidity
%
barometer
mb
20260831045023 69 213 0.0 1.0 0.63 0.94 0.31 87 1014.9
20260831044507 69 213 0.0 1.0 0.78 0.94 0.31 87 1015.2
20260831044023 69 221 0.0 1.0 0.85 0.93 0.30 87 1015.2
20260831043506 69 221 0.0 1.0 0.88 0.93 0.30 87 1015.3
20260831042500 70 205 0.0 2.0 0.87 0.89 0.26 87 1015.4
20260831041536 70 132 0.0 2.0 0.76 0.77 0.14 87 1015.5
20260831040520 70 42 0.0 4.0 0.74 0.74 0.11 87 1015.4
20260831040050 70 142 1.0 4.0 0.65 0.65 0.02 87 1015.4
20260831035502 70 246 1.0 8.0 0.48 0.48 0.48 87 1015.4
20260831035028 70 129 1.0 8.0 0.29 0.29 0.29 86 1015.2
20260831034503 70 228 1.0 8.0 0.16 0.16 0.16 86 1015.2
20260831034003 71 244 0.0 6.0 0.08 0.08 0.08 86 1015.2
20260831033514 71 184 2.0 10.0 0.05 0.05 0.05 86 1015.2
20260831032502 71 219 1.0 6.0 0.02 0.02 0.02 86 1015.2
20260831032027 71 231 2.0 11.0 0.02 0.02 0.02 86 1015.2
20260831031510 71 186 2.0 11.0 0.01 0.01 0.01 86 1015.3
20260831031000 71 49 0.0 7.0 0.00 0.00 0.00 85 1015.2
20260831030528 71 146 1.0 7.0 0.00 0.00 0.00 85 1015.0
20260831030021 71 170 2.0 6.0 0.00 0.00 0.00 85 1015.1
20260831025004 71 143 1.0 6.0 0.00 0.00 0.00 85 1015.2
20260831024000 71 213 1.0 8.0 0.00 0.00 0.00 84 1015.3
20260831023023 71 222 2.0 9.0 0.00 0.00 0.00 84 1015.1
20260831022505 72 157 3.0 9.0 0.00 0.00 0.00 84 1015.0
20260831022018 72 215 3.0 11.0 0.00 0.00 0.00 83 1015.0
20260831021509 72 217 3.0 11.0 0.00 0.00 0.00 83 1015.0
20260831021000 72 176 3.0 8.0 0.00 0.00 0.00 83 1015.1
20260831020042 72 116 2.0 9.0 0.00 0.00 0.00 82 1015.2
20260831015459 72 180 3.0 9.0 0.00 0.00 0.00 82 1015.2
20260831015001 72 175 3.0 9.0 0.00 0.00 0.00 81 1015.1
20260831014506 72 191 3.0 12.0 0.00 0.00 0.00 81 1015.1
20260831014011 72 173 2.0 12.0 0.00 0.00 0.00 81 1015.1
20260831013505 72 231 2.0 9.0 0.00 0.00 0.00 80 1015.0
20260831012026 72 196 3.0 10.0 0.00 0.00 0.00 79 1014.9
20260831011502 72 120 2.0 9.0 0.00 0.00 0.00 79 1014.8
20260831011005 73 163 2.0 7.0 0.00 0.00 0.00 78 1014.8
20260831010506 73 227 3.0 9.0 0.00 0.00 0.00 78 1014.9
20260831010039 73 165 3.0 9.0 0.00 0.00 0.00 78 1014.9
20260831005510 73 150 3.0 8.0 0.00 0.00 0.00 77 1014.8
20260831004005 73 179 3.0 8.0 0.00 0.00 0.00 75 1014.8
20260831003504 73 215 3.0 7.0 0.00 0.00 0.00 74 1014.9
20260831003006 73 225 3.0 8.0 0.00 0.00 0.00 73 1014.8
20260831002508 74 197 3.0 10.0 0.00 0.00 0.00 72 1014.7
20260831001500 74 200 3.0 7.0 0.00 0.00 0.00 70 1014.7
20260831001002 74 202 2.0 7.0 0.00 0.00 0.00 70 1014.7
20260831000527 74 218 3.0 8.0 0.00 0.00 0.00 69 1014.6
20260831000026 74 137 4.0 11.0 0.00 0.00 0.00 68 1014.5
20260830235504 74 194 3.0 11.0 0.00 0.00 0.00 68 1014.4
20260830235002 74 132 3.0 7.0 0.00 0.00 0.00 67 1014.4
20260830234500 74 148 3.0 7.0 0.00 0.00 0.00 66 1014.4
20260830234004 74 240 3.0 8.0 0.00 0.00 0.00 65 1014.4
20260830233501 74 119 3.0 8.0 0.00 0.00 0.00 65 1014.5
20260830233026 75 180 4.0 8.0 0.00 0.00 0.00 65 1014.6
20260830232518 75 169 4.0 9.0 0.00 0.00 0.00 64 1014.5
20260830232015 75 196 3.0 9.0 0.00 0.00 0.00 64 1014.5
20260830231507 75 184 3.0 8.0 0.00 0.00 0.00 63 1014.5
20260830231004 75 204 4.0 11.0 0.00 0.00 0.00 63 1014.4
20260830230504 75 175 3.0 11.0 0.00 0.00 0.00 62 1014.4
20260830230008 75 207 4.0 11.0 0.00 0.00 0.00 62 1014.5
20260830225001 76 140 4.0 11.0 0.00 0.00 0.00 61 1014.6
20260830224533 76 178 5.0 12.0 0.00 0.00 0.00 61 1014.7
20260830224009 76 167 4.0 12.0 0.00 0.00 0.00 60 1014.6
20260830223525 77 111 3.0 8.0 0.00 0.00 0.00 60 1014.8
20260830223003 77 203 3.0 8.0 0.00 0.00 0.00 59 1014.8
20260830222502 77 166 3.0 7.0 0.00 0.00 0.00 59 1014.7
20260830222018 77 126 3.0 7.0 0.00 0.00 0.00 59 1014.7
20260830221501 77 246 3.0 9.0 0.00 0.00 0.00 58 1014.8
20260830221010 77 171 3.0 10.0 0.00 0.00 0.00 57 1014.7
20260830220504 77 196 4.0 10.0 0.00 0.00 0.00 57 1014.8
20260830220008 78 165 4.0 9.0 0.00 0.00 0.00 56 1014.8
20260830215545 78 188 4.0 9.0 0.00 0.00 0.00 56 1015.0
20260830215002 78 167 4.0 11.0 0.00 0.00 0.00 55 1015.0
20260830214503 78 237 4.0 11.0 0.00 0.00 0.00 54 1015.0
20260830213508 78 163 4.0 9.0 0.00 0.00 0.00 53 1015.0
20260830213000 79 137 3.0 9.0 0.00 0.00 0.00 53 1014.9
20260830212459 79 224 3.0 9.0 0.00 0.00 0.00 55 1015.0
20260830212005 79 167 2.0 6.0 0.00 0.00 0.00 54 1014.9
20260830211505 79 167 2.0 8.0 0.00 0.00 0.00 55 1014.9
20260830211042 79 246 2.0 8.0 0.00 0.00 0.00 55 1014.9
20260830210005 79 209 2.0 9.0 0.00 0.00 0.00 52 1015.0
20260830205547 80 137 2.0 6.0 0.00 0.00 0.00 54 1015.0
20260830205011 80 184 2.0 6.0 0.00 0.00 0.00 52 1015.0
20260830204505 80 179 2.0 6.0 0.00 0.00 0.00 53 1015.0
20260830204003 80 303 3.0 7.0 0.00 0.00 0.00 51 1015.0
20260830203459 80 173 3.0 10.0 0.00 0.00 0.00 51 1015.0
20260830203005 81 234 3.0 10.0 0.00 0.00 0.00 51 1015.1
20260830202501 81 227 4.0 10.0 0.00 0.00 0.00 50 1015.1
20260830202004 81 129 4.0 10.0 0.00 0.00 0.00 50 1015.1
20260830201503 81 238 4.0 11.0 0.00 0.00 0.00 50 1015.0
20260830200502 82 209 4.0 12.0 0.00 0.00 0.00 51 1015.2
20260830200011 82 217 5.0 12.0 0.00 0.00 0.00 48 1015.2
20260830195458 83 185 4.0 10.0 0.00 0.00 0.00 49 1015.2
20260830195002 83 112 3.0 8.0 0.00 0.00 0.00 49 1015.2
20260830194517 83 109 3.0 8.0 0.00 0.00 0.00 48 1015.3
20260830194001 83 128 3.0 7.0 0.00 0.00 0.00 47 1015.3
20260830193459 83 212 3.0 9.0 0.00 0.00 0.00 48 1015.4
20260830193004 83 198 3.0 9.0 0.00 0.00 0.00 45 1015.4
20260830192504 84 190 2.0 8.0 0.00 0.00 0.00 45 1015.5
20260830192008 84 100 2.0 8.0 0.00 0.00 0.00 46 1015.4
20260830191458 85 198 2.0 7.0 0.00 0.00 0.00 45 1015.6
20260830191004 85 195 3.0 8.0 0.00 0.00 0.00 46 1015.6
20260830190517 85 244 4.0 10.0 0.00 0.00 0.00 45 1015.6
20260830190009 85 236 3.0 10.0 0.00 0.00 0.00 43 1015.6
20260830185501 85 202 3.0 7.0 0.00 0.00 0.00 44 1015.7
20260830185003 85 219 3.0 7.0 0.00 0.00 0.00 42 1015.7
20260830184504 85 304 3.0 8.0 0.00 0.00 0.00 43 1015.9
20260830184005 86 168 4.0 8.0 0.00 0.00 0.00 42 1015.9
20260830183501 86 200 3.0 8.0 0.00 0.00 0.00 43 1016.0
20260830183003 87 205 3.0 9.0 0.00 0.00 0.00 45 1016.1
20260830182500 86 171 4.0 10.0 0.00 0.00 0.00 46 1016.1
20260830182022 86 91 4.0 12.0 0.00 0.00 0.00 42 1016.1
20260830181006 86 188 4.0 8.0 0.00 0.00 0.00 45 1016.3
20260830180458 85 229 4.0 8.0 0.00 0.00 0.00 43 1016.5
20260830175511 86 168 4.0 12.0 0.00 0.00 0.00 42 1016.4
20260830175003 87 135 4.0 12.0 0.00 0.00 0.00 42 1016.5
20260830174001 87 225 4.0 10.0 0.00 0.00 0.00 43 1016.6
20260830173001 85 24 4.0 10.0 0.00 0.00 0.00 46 1016.5
20260830172526 85 217 3.0 10.0 0.00 0.00 0.00 48 1016.5
20260830172006 84 241 3.0 8.0 0.00 0.00 0.00 48 1016.6
20260830171511 85 220 3.0 10.0 0.00 0.00 0.00 48 1016.7
20260830171103 85 201 3.0 10.0 0.00 0.00 0.00 48 1016.7
20260830170547 85 171 3.0 10.0 0.00 0.00 0.00 46 1016.8
20260830170005 85 220 3.0 7.0 0.00 0.00 0.00 47 1016.8
20260830165502 85 165 4.0 10.0 0.00 0.00 0.00 50 1016.8
20260830165003 85 160 4.0 10.0 0.00 0.00 0.00 51 1016.8
20260830164511 85 169 3.0 10.0 0.00 0.00 0.00 48 1016.9
20260830164005 85 189 4.0 10.0 0.00 0.00 0.00 46 1016.9
20260830163502 85 191 4.0 9.0 0.00 0.00 0.00 46 1016.7
20260830163003 86 201 4.0 12.0 0.00 0.00 0.00 45 1016.9
20260830162511 86 170 5.0 12.0 0.00 0.00 0.00 48 1017.0
20260830162005 86 95 4.0 10.0 0.00 0.00 0.00 48 1017.0
20260830161520 86 311 4.0 8.0 0.00 0.00 0.00 49 1017.0
20260830161042 85 211 4.0 8.0 0.00 0.00 0.00 47 1016.9
20260830160501 85 217 4.0 9.0 0.00 0.00 0.00 48 1017.1
20260830160031 85 192 4.0 9.0 0.00 0.00 0.00 46 1017.1
20260830155521 85 217 3.0 10.0 0.00 0.00 0.00 46 1017.1
20260830155023 84 98 4.0 10.0 0.00 0.00 0.00 48 1017.2
20260830154006 83 21 4.0 13.0 0.00 0.00 0.00 51 1017.3
20260830153506 83 299 4.0 13.0 0.00 0.00 0.00 47 1017.4
20260830153004 83 147 3.0 9.0 0.00 0.00 0.00 51 1017.4
20260830152504 83 229 4.0 11.0 0.00 0.00 0.00 50 1017.5
20260830152019 83 111 4.0 11.0 0.00 0.00 0.00 48 1017.6
20260830151503 83 180 4.0 9.0 0.00 0.00 0.00 50 1017.6
20260830151009 83 252 3.0 10.0 0.00 0.00 0.00 49 1017.8
20260830150519 83 229 4.0 10.0 0.00 0.00 0.00 50 1017.8
20260830145520 82 209 4.0 9.0 0.00 0.00 0.00 52 1018.0
20260830144959 82 163 3.0 8.0 0.00 0.00 0.00 51 1018.0
20260830144509 82 250 3.0 8.0 0.00 0.00 0.00 51 1018.0
20260830144003 82 204 3.0 8.0 0.00 0.00 0.00 53 1018.1
20260830143458 81 178 3.0 8.0 0.00 0.00 0.00 53 1018.1
20260830143005 81 189 4.0 9.0 0.00 0.00 0.00 54 1018.0
20260830142507 81 197 3.0 9.0 0.00 0.00 0.00 52 1018.1
20260830142009 81 131 3.0 10.0 0.00 0.00 0.00 55 1018.1
20260830141514 80 171 4.0 10.0 0.00 0.00 0.00 56 1018.2
20260830141008 80 212 4.0 8.0 0.00 0.00 0.00 58 1018.2
20260830140502 79 173 3.0 8.0 0.00 0.00 0.00 59 1018.2
20260830140034 79 292 3.0 8.0 0.00 0.00 0.00 61 1018.2
20260830135504 78 156 3.0 8.0 0.00 0.00 0.00 60 1018.3
20260830135031 77 197 2.0 8.0 0.00 0.00 0.00 59 1018.4
20260830134515 77 169 3.0 10.0 0.00 0.00 0.00 62 1018.5
20260830134003 76 181 3.0 10.0 0.00 0.00 0.00 63 1018.6
20260830133502 76 235 3.0 8.0 0.00 0.00 0.00 65 1018.6
20260830133010 75 189 3.0 9.0 0.00 0.00 0.00 66 1018.6
20260830132511 75 165 4.0 12.0 0.00 0.00 0.00 67 1018.7
20260830130459 72 203 2.0 7.0 0.00 0.00 0.00 72 1018.7
20260830130001 72 229 2.0 7.0 0.00 0.00 0.00 74 1018.8
20260830125509 71 204 2.0 6.0 0.00 0.00 0.00 74 1018.8
20260830124517 70 234 2.0 7.0 0.00 0.00 0.00 78 1018.9
20260830123000 67 216 3.0 7.0 0.00 0.00 0.00 82 1019.1
20260830122028 66 160 2.0 9.0 0.00 0.00 0.00 84 1019.1
20260830121459 65 267 2.0 7.0 0.00 0.00 0.00 85 1019.0
20260830121008 65 223 2.0 7.0 0.00 0.00 0.00 85 1019.0
20260830120500 64 163 1.0 5.0 0.00 0.00 0.00 85 1019.0
20260830120038 64 209 2.0 5.0 0.00 0.00 0.00 85 1019.0
20260830115011 64 193 1.0 5.0 0.00 0.00 0.00 86 1019.0
20260830114522 63 251 1.0 5.0 0.00 0.00 0.00 86 1019.0
20260830114029 63 221 2.0 6.0 0.00 0.00 0.00 86 1019.1
20260830113514 63 166 2.0 7.0 0.00 0.00 0.00 87 1019.1
20260830113000 63 227 2.0 7.0 0.00 0.00 0.00 87 1019.1
20260830112459 62 232 3.0 6.0 0.00 0.00 0.00 87 1019.0
20260830112033 62 260 2.0 8.0 0.00 0.00 0.00 87 1019.0
20260830111008 61 213 1.0 5.0 0.00 0.00 0.00 87 1018.9
20260830110459 61 197 1.0 6.0 0.00 0.00 0.00 88 1018.9
20260830110026 61 195 1.0 6.0 0.00 0.00 0.00 87 1018.9
20260830105501 60 235 1.0 5.0 0.00 0.00 0.00 87 1018.9
20260830105013 60 234 1.0 4.0 0.00 0.00 0.00 87 1019.0
20260830104508 60 236 0.0 4.0 0.00 0.00 0.00 87 1019.1
20260830104004 60 201 0.0 1.0 0.00 0.00 0.00 87 1019.2
20260830103504 60 199 0.0 1.0 0.00 0.00 0.00 87 1019.2
20260830103010 60 292 0.0 5.0 0.00 0.00 0.00 87 1019.2
20260830102504 60 192 0.0 5.0 0.00 0.00 0.00 87 1019.2
20260830101511 60 218 0.0 6.0 0.00 0.00 0.00 87 1019.1
20260830101006 60 209 0.0 5.0 0.00 0.00 0.00 87 1019.0
20260830100507 60 209 0.0 5.0 0.00 0.00 0.00 87 1019.1
20260830100041 60 180 0.0 1.0 0.00 0.00 0.00 87 1019.0
20260830095526 60 180 0.0 2.0 0.00 0.00 0.00 87 1019.0
20260830095008 60 180 0.0 2.0 0.00 0.00 0.00 87 1019.0
20260830094528 60 194 0.0 0.0 0.00 0.00 0.00 87 1019.1
20260830093507 60 196 0.0 0.0 0.00 0.00 0.00 87 1019.1
20260830092959 60 196 0.0 0.0 0.00 0.00 0.00 87 1019.2
20260830092516 60 196 0.0 1.0 0.00 0.00 0.00 87 1019.2
20260830092029 60 196 0.0 1.0 0.00 0.00 0.00 87 1019.2
20260830091500 60 225 0.0 0.0 0.00 0.00 0.00 87 1019.3
20260830091010 60 227 0.0 1.0 0.00 0.00 0.00 88 1019.4
20260830090501 61 227 0.0 1.0 0.00 0.00 0.00 88 1019.4
20260830090005 60 227 0.0 0.0 0.00 0.00 0.00 88 1019.4
20260830085520 60 227 0.0 4.0 0.00 0.00 0.00 88 1019.6
20260830085022 60 228 1.0 9.0 0.00 0.00 0.00 88 1019.7
20260830084500 60 202 1.0 9.0 0.00 0.00 0.00 88 1019.8
20260830084002 60 198 0.0 6.0 0.00 0.00 0.00 87 1019.8
20260830083510 60 219 0.0 2.0 0.00 0.00 0.00 87 1019.9
20260830082503 60 229 1.0 5.0 0.00 0.00 0.00 87 1019.9
20260830082021 60 220 0.0 5.0 0.00 0.00 0.00 87 1019.8
20260830081512 60 228 0.0 2.0 0.00 0.00 0.00 87 1019.7
20260830081022 60 229 0.0 4.0 0.00 0.00 0.00 87 1019.7
20260830080458 60 215 1.0 4.0 0.00 0.00 0.00 87 1019.7
20260830074504 60 213 0.0 1.0 0.00 0.00 0.00 86 1019.5
20260830073959 60 213 0.0 1.0 0.00 0.00 0.00 87 1019.4
20260830073502 60 213 0.0 1.0 0.00 0.00 0.00 86 1019.4
20260830073002 60 213 0.0 1.0 0.00 0.00 0.00 87 1019.5
20260830072516 60 213 0.0 1.0 0.00 0.00 0.00 87 1019.4
20260830072004 60 213 0.0 1.0 0.00 0.00 0.00 87 1019.5
20260830071504 60 213 0.0 1.0 0.00 0.00 0.00 87 1019.4
20260830071007 60 213 0.0 1.0 0.00 0.00 0.00 87 1019.4
20260830070458 60 213 0.0 0.0 0.00 0.00 0.00 87 1019.4
20260830070006 60 213 0.0 1.0 0.00 0.00 0.00 87 1019.5
20260830065500 61 214 0.0 1.0 0.00 0.00 0.00 87 1019.5
20260830064502 60 201 0.0 4.0 0.00 0.00 0.00 87 1019.5
20260830064006 60 275 0.0 4.0 0.00 0.00 0.00 87 1019.6
20260830063507 60 277 0.0 4.0 0.00 0.00 0.00 87 1019.6
20260830062508 60 201 0.0 1.0 0.00 0.00 0.00 87 1019.6
20260830062003 60 201 0.0 2.0 0.00 0.00 0.00 87 1019.6
20260830061516 60 220 0.0 5.0 0.00 0.00 0.00 87 1019.6
20260830060510 60 202 0.0 1.0 0.00 0.00 0.00 87 1019.6
20260830060022 60 225 0.0 2.0 0.00 0.00 0.00 86 1019.6
20260830055459 60 226 0.0 6.0 0.00 0.00 0.00 86 1019.5
20260830055005 60 226 0.0 6.0 0.00 0.00 0.00 86 1019.5
20260830054007 60 202 0.0 0.0 0.00 0.00 0.00 86 1019.4
20260830053503 61 209 0.0 1.0 0.00 0.00 0.00 86 1019.4
20260830052502 61 209 0.0 1.0 0.00 0.00 0.00 86 1019.5
20260830051512 61 209 0.0 1.0 0.00 0.00 0.00 86 1019.5
20260830051004 61 209 0.0 0.0 0.00 0.00 0.00 86 1019.5
20260830050517 61 209 0.0 0.0 0.00 0.00 0.00 85 1019.5
20260830050005 61 209 0.0 0.0 0.00 0.00 0.00 85 1019.5